Showing default

MERIDIAN 7, 40296

Orbit data source: Space-Track

MERIDIAN 7, 40296 is a payload satellite owned by VVKO (CIS) in HEO that was launched on Thu, 30 Oct 2014 UTC via a SOYUZ-2-1A launch vehicle from the Plesetsk Missile And Space Complex (PKMTR). Payload-class satellites include a variety of spacecraft equipped with specific instruments for various scientific and technological missions. These include communications satellites like Starlink; space stations such as the ISS; scientific satellites like the Hubble; Earth observation satellites from companies like Planet Labs, Umbra, and HawkEye 360; GPS; miniature CubeSats for education and research; and military/defense satellites.

Loading next visibility...
Identifier
40296, 2014-069A
Orbit
HEO
Country
Flag of CISCIS
Related business
Manufacturer
Resehetnev ISS
Mission
Operational Defense Communications
Bus & Motor
MERIDIAN, Unknown motor
Mass
~2,000 kg wet, ~2,000 kg dry
Launch date (UTC)
2014-10-30 (11 years ago)
Launch vehicle
SOYUZ-2-1A
Launch site
Plesetsk Missile And Space Complex (PKMTR)
Object type
Payload
Rocket body
Debris
Shape & HBR
Box + 2 Pan, 5.0 m
Radar Cross Section
14.304 m², Large (>1 m²)

Expand to show TLE details & history
Last TLE update: 1 day ago

TLE from 1 day ago
0 MERIDIAN 7
1 40296U 14069A   25303.86506039  .00000011  00000-0  00000+0 0  9992
2 40296  63.4683 238.4675 6752264 271.8978  18.2864  2.00613760 80633
Epoch: 2025-10-30T20:45Z
TLE epoch observation values (Epoch: 2025-10-30T20:45:41.217Z)
Latitude
0.00006°
Longitude
-112.41545°
Altitude
7,760.534 km
Speed
6.433 km/s
True Right ascension
15h 53m 41s
True Declination
0° 00' 00"
Sunlit
Object was in daylight at epoch
Visualization orbit readout
Latitude
Unknown
Longitude
Unknown
Altitude
Unknown
Speed
Unknown
Apparent Right ascension
Unknown
Apparent Declination
Unknown
Sunlit
N/A
Visualization observer readout
Local Sidereal Time
01:43:38
Azimuth
Unknown
Elevation
Unknown
Doppler factor
Unknown
Orbital elements
Apogee altitude
38,107.68 km
Perigee altitude
2,246.261 km
Semi-major axis
26,555.108 km
Eccentricity
0.67523
Inclination
63.4683°
RAAN
238.4675°
Arg. of periapsis
271.8978°
True anomaly
88.20491°
Mean anomaly
18.2864°
Eccentric anomaly
46.218°
Mean motion
0.50156 °/min
Orbital period
717.76 mins
BSTAR
0
Loading maneuver chart data...
Computing Atmospheric mass density...
Loading historical data...
Loading historical data...
Loading historical data...
Loading historical data...
Loading historical data...
Loading historical data...
Loading historical data...
Other satellites on launch #69 in the year 2014 (2014-10-30 UTC)

Documentation

Showing up to 5 results
|